English version Home page |
Updated on December 4, 2007 |
|
軌道要素The following orbital elements are taken from MPC 60664: Epoch 2007 Apr. 10.0 TT = JDT 2454200.5 T 2007 Mar. 27.5045 TT MPC q 1.092956 (2000.0) P Q z +0.000619 Peri. 340.5374 -0.5477785 -0.2797640 +/-0.000019 Node 232.4327 -0.5729465 -0.5613071 e 0.999324 Incl. 95.8844 -0.6096482 +0.7788879 From 1520 observations 2007 Mar. 18-Aug. 23, mean residual 0".6.
|
星図
|
光度変化m1 = 8.0 + 5 logΔ + 20.0 log r
|
軌道要素はMPCのEphemerides and Orbital Elementsに掲載されたものです。
|